Hollywood, FL

11:36 AM EST on November 18, 2017 (GMT -0500)
North Perry

Weather History for KHWO - January, 2013

Change the Weather History Date:

Sunday, January 27, 2013

  Actual Average (KFLL) Record (KFLL)
Temperature  
Mean Temperature 70 °F -  
Max Temperature 80 °F 75 °F 88 °F (1965)
Min Temperature 61 °F 55 °F 37 °F (1940)
Cooling Degree Days 6    
Growing Degree Days 20 (Base 50)    
Moisture  
Dew Point 61 °F    
Average Humidity 72    
Maximum Humidity 93    
Minimum Humidity 50    
Precipitation  
Precipitation 0.00 in - - ()
Sea Level Pressure  
Sea Level Pressure 30.26 in    
Wind  
Wind Speed 5 mph (ENE)    
Max Wind Speed 16 mph    
Max Gust Speed 22 mph    
Visibility 10 miles    
Events      
Averages and records for this station are not official NWS values.
T = Trace of Precipitation, MM = Missing Value Source: NWS Daily Summary

Daily Weather History Graph

Daily Weather History Graph

Search for Another Location

Airport or City:

Trip Planner

Search our weather history database for the weather conditions in past years. The results will help you decide how hot, cold, wet, or windy it might be!

Date:

Astronomy

Jan. 27, 2013 Rise Set
Actual Time 7:07 AM EST 6:00 PM EST
Civil Twilight 6:42 AM EST 6:25 PM EST
Nautical Twilight 6:14 AM EST 6:52 PM EST
Astronomical Twilight 5:47 AM EST 7:20 PM EST
Moon 6:43 PM EST (1/27) 7:07 AM EST (1/27)
Length of Visible Light 11h 42m
Length of Day
10h 53m
Full, 100% of the Moon is Illuminated
Jan 27
Full
Feb 3
Last Quarter
Feb 10
New
Feb 17
First Quarter
Feb 25
Full

Hourly Weather History & Observations

Time (EST) Temp. Heat Index Dew Point Humidity Pressure Visibility Wind Dir Wind Speed Gust Speed Precip Events Conditions
12:53 AM 64.0 °F - 60.1 °F 87% 30.23 in 10.0 mi Calm Calm - N/A   Clear
1:53 AM 64.0 °F - 59.0 °F 84% 30.23 in 10.0 mi Calm Calm - N/A   Clear
2:53 AM 63.0 °F - 59.0 °F 87% 30.22 in 10.0 mi Calm Calm - N/A   Clear
3:53 AM 63.0 °F - 60.1 °F 90% 30.22 in 10.0 mi Calm Calm - N/A   Clear
4:53 AM 61.0 °F - 59.0 °F 93% 30.22 in 10.0 mi Calm Calm - N/A   Clear
5:53 AM 61.0 °F - 59.0 °F 93% 30.23 in 10.0 mi North 3.5 mph - N/A   Clear
6:53 AM 61.0 °F - 59.0 °F 93% 30.25 in 10.0 mi Calm Calm - N/A   Clear
7:53 AM 64.0 °F - 61.0 °F 90% 30.26 in 10.0 mi North 6.9 mph - N/A   Clear
8:53 AM 70.0 °F - 62.1 °F 76% 30.28 in 10.0 mi North 4.6 mph - N/A   Scattered Clouds
9:53 AM 75.0 °F - 61.0 °F 62% 30.30 in 10.0 mi ENE 10.4 mph - N/A   Mostly Cloudy
10:53 AM 78.1 °F - 62.1 °F 58% 30.29 in 10.0 mi ENE 16.1 mph 21.9 mph N/A   Scattered Clouds
11:53 AM 77.0 °F - 61.0 °F 58% 30.29 in 10.0 mi East 16.1 mph - N/A   Mostly Cloudy
12:53 PM 75.9 °F - 60.1 °F 58% 30.27 in 10.0 mi NE 13.8 mph - N/A   Scattered Clouds
1:53 PM 80.1 °F 80.9 °F 60.1 °F 50% 30.25 in 10.0 mi NE 12.7 mph - N/A   Mostly Cloudy
2:53 PM 78.1 °F - 59.0 °F 52% 30.25 in 10.0 mi East 15.0 mph - N/A   Partly Cloudy
3:53 PM 77.0 °F - 59.0 °F 54% 30.25 in 10.0 mi ENE 12.7 mph 20.7 mph N/A   Overcast
4:53 PM 75.0 °F - 60.1 °F 60% 30.25 in 10.0 mi ENE 13.8 mph - N/A   Scattered Clouds
5:53 PM 73.0 °F - 61.0 °F 66% 30.27 in 10.0 mi ENE 10.4 mph - N/A   Partly Cloudy
6:53 PM 72.0 °F - 62.1 °F 71% 30.27 in 10.0 mi ENE 6.9 mph - N/A   Scattered Clouds
7:53 PM 72.0 °F - 62.1 °F 71% 30.28 in 10.0 mi ENE 10.4 mph - N/A   Partly Cloudy
8:53 PM 73.0 °F - 63.0 °F 71% 30.30 in 10.0 mi ENE 8.1 mph - N/A   Overcast
9:06 PM 73.4 °F - 62.6 °F 69% 30.29 in 10.0 mi East 9.2 mph - N/A   Overcast
9:53 PM 73.0 °F - 62.1 °F 68% 30.30 in 10.0 mi ENE 8.1 mph - N/A   Scattered Clouds
10:53 PM 72.0 °F - 61.0 °F 68% 30.30 in 10.0 mi East 9.2 mph - N/A   Clear
11:53 PM 73.0 °F - 63.0 °F 71% 30.28 in 10.0 mi East 11.5 mph - N/A   Scattered Clouds